Tracking 25703 objects as of 2-Jul-2022
HD Live streaming from Space Station
objects crossing your sky now

TDRS 10

Track TDRS 10 now!
TDRS 10 is classified as:


NORAD ID: 27566
Int'l Code: 2002-055A
Perigee: 35,757.8 km
Apogee: 35,831.8 km
Inclination: 8.2 °
Period: 1,436.2 minutes
Semi major axis: 42165 km
RCS: 5.0118 m2 (large)
Launch date: December 5, 2002
Source: United States (US)
Launch site: AIR FORCE EASTERN TEST RANGE (AFETR)

Tracking and communications with space shuttle, other missions.
aabbcc
Your satellite tracking list
Your tracking list is empty




NASA's NSSDC Master Catalog

Two Line Element Set (TLE):
1 27566U 02055A   22182.82154491  .00000093  00000-0  00000-0 0  9999
2 27566   8.2281  49.8974 0008779 349.0337   5.5527  1.00267963 71725
Source of the keplerian elements: AFSPC